White Plains, CT

9:54 PM EDT on October 13, 2019 (GMT -0400)
Westchester County

Weather History for KHPN - July, 2019

Change the Weather History Date:

Wednesday, July 17, 2019

  Actual Average Record
Temperature  
Mean Temperature 82 °F -  
Max Temperature 91 °F 80 °F 99 °F (1977)
Min Temperature 73 °F 62 °F 56 °F (1987)
Cooling Degree Days 16    
Growing Degree Days 32 (Base 50)    
Moisture  
Dew Point 72 °F    
Average Humidity 77    
Maximum Humidity 97    
Minimum Humidity 50    
Precipitation  
Precipitation 0.85 in - - ()
Sea Level Pressure  
Sea Level Pressure 29.91 in    
Wind  
Wind Speed 3 mph (WSW)    
Max Wind Speed 15 mph    
Max Gust Speed 22 mph    
Visibility 8 miles    
Events Rain , Thunderstorm    
Averages and records for this station are not official NWS values.
T = Trace of Precipitation, MM = Missing Value Source: NWS Daily Summary

Daily Weather History Graph

Daily Weather History Graph

Search for Another Location

Airport or City:

Astronomy

Jul. 17, 2019 Rise Set
Actual Time 5:36 AM EDT 8:24 PM EDT
Civil Twilight 5:04 AM EDT 8:57 PM EDT
Nautical Twilight 4:23 AM EDT 9:37 PM EDT
Astronomical Twilight 3:36 AM EDT 10:24 PM EDT
Moon 9:11 PM EDT (7/17) 6:06 AM EDT (7/17)
Length of Visible Light 15h 52m
Length of Day
14h 47m
Waxing Gibbous, 99% of the Moon is Illuminated
Jul 17
Waxing Gibbous
Jul 24
Last Quarter
Jul 31
New
Aug 7
First Quarter
Aug 15
Full

Hourly Weather History & Observations

Time (EDT) Temp. Heat Index Dew Point Humidity Pressure Visibility Wind Dir Wind Speed Gust Speed Precip Events Conditions
12:56 AM 75.0 °F - 71.1 °F 87% 29.98 in 10.0 mi Calm Calm - N/A   Clear
1:56 AM 78.1 °F - 68.0 °F 71% 29.97 in 10.0 mi WSW 4.6 mph - N/A   Clear
2:56 AM 78.1 °F - 66.9 °F 68% 29.96 in 10.0 mi WSW 4.6 mph - N/A   Clear
3:56 AM 75.0 °F - 66.9 °F 76% 29.95 in 10.0 mi Calm Calm - N/A   Partly Cloudy
4:56 AM 73.9 °F - 66.9 °F 79% 29.96 in 10.0 mi Calm Calm - N/A   Scattered Clouds
5:56 AM 73.9 °F - 68.0 °F 82% 29.96 in 10.0 mi Calm Calm - N/A   Partly Cloudy
6:56 AM 75.9 °F - 69.1 °F 79% 29.95 in 10.0 mi Calm Calm - N/A   Mostly Cloudy
7:56 AM 79.0 °F - 69.1 °F 72% 29.95 in 10.0 mi Calm Calm - N/A   Clear
8:56 AM 81.0 °F 84.9 °F 71.1 °F 72% 29.96 in 10.0 mi West 3.5 mph - N/A   Partly Cloudy
9:56 AM 84.0 °F 89.6 °F 72.0 °F 67% 29.96 in 10.0 mi West 8.1 mph - N/A   Partly Cloudy
10:56 AM 88.0 °F 94.7 °F 72.0 °F 59% 29.94 in 10.0 mi WNW 4.6 mph - N/A   Partly Cloudy
11:56 AM 90.0 °F 95.4 °F 70.0 °F 52% 29.92 in 10.0 mi West 6.9 mph - N/A   Partly Cloudy
12:56 PM 90.0 °F 94.5 °F 69.1 °F 50% 29.91 in 10.0 mi Variable 6.9 mph - N/A   Partly Cloudy
1:56 PM 90.0 °F 95.4 °F 70.0 °F 52% 29.88 in 10.0 mi Variable 4.6 mph - N/A   Scattered Clouds
2:24 PM 88.0 °F 95.6 °F 73.0 °F 61% 29.92 in 2.5 mi WNW 15.0 mph 19.6 mph 0.00 in Rain Light Rain
2:33 PM 84.0 °F 89.6 °F 72.0 °F 67% 29.90 in 8.0 mi ENE 3.5 mph - 0.00 in Rain Light Rain
2:56 PM 86.0 °F 92.2 °F 72.0 °F 63% 29.87 in 10.0 mi Calm Calm - 0.00 in   Mostly Cloudy
3:56 PM 84.9 °F 94.1 °F 75.9 °F 74% 29.86 in 9.0 mi West 3.5 mph - N/A   Mostly Cloudy
4:27 PM 84.9 °F 93.3 °F 75.0 °F 72% 29.87 in 4.0 mi SW 6.9 mph - 0.02 in Rain , Thunderstorm Light Thunderstorms and Rain
4:29 PM 84.0 °F 91.9 °F 75.0 °F 74% 29.87 in 1.5 mi Variable 5.8 mph - 0.04 in Rain , Thunderstorm Light Thunderstorms and Rain
4:50 PM 78.8 °F - 73.4 °F 83% 29.86 in 10.0 mi SE 6.9 mph - 0.09 in Rain , Thunderstorm Light Thunderstorms and Rain
4:56 PM 80.1 °F 84.5 °F 73.9 °F 81% 29.84 in 10.0 mi Calm Calm - 0.09 in Rain , Thunderstorm Light Thunderstorms and Rain
5:56 PM 84.9 °F 95.3 °F 77.0 °F 77% 29.84 in 10.0 mi Calm Calm - 0.00 in   Scattered Clouds
6:56 PM 82.9 °F 93.8 °F 79.0 °F 88% 29.84 in 9.0 mi East 3.5 mph - N/A   Scattered Clouds
7:56 PM 80.1 °F 85.1 °F 75.0 °F 85% 29.85 in 10.0 mi East 6.9 mph 21.9 mph N/A   Mostly Cloudy
8:34 PM 78.1 °F - 73.9 °F 87% 29.92 in 2.0 mi NNW 11.5 mph 20.7 mph 0.20 in Rain , Thunderstorm Heavy Thunderstorms and Rain
8:56 PM 73.9 °F - 73.0 °F 97% 29.93 in 2.0 mi North 8.1 mph - 0.49 in Rain , Thunderstorm Heavy Thunderstorms and Rain
9:24 PM 73.9 °F - 73.0 °F 97% 29.95 in 5.0 mi SE 3.5 mph - 0.09 in Rain Light Rain
9:56 PM 73.9 °F - 73.0 °F 97% 29.90 in 10.0 mi NE 3.5 mph - 0.10 in Rain Light Rain
10:43 PM 73.9 °F - 73.0 °F 97% 29.94 in 7.0 mi SSW 9.2 mph 19.6 mph 0.02 in Rain Light Rain
10:56 PM 73.9 °F - 72.0 °F 93% 29.92 in 7.0 mi South 8.1 mph - 0.05 in Rain Light Rain
11:56 PM 73.0 °F - 72.0 °F 96% 29.88 in 8.0 mi East 4.6 mph - 0.12 in Rain Light Rain